Regional Weather Roundup
Issued by NWS

Home | Current Version | Previous Version | Text Only | Print | Product List | Glossary On
Versions: 1 2 3 4 5 6 7 8 9 10 11 12 13 14 15 16 17 18 19 20 21 22 23 24 25 26 27 28 29 30 31 32 33 34 35 36 37 38 39 40 41 42 43 44 45 46 47 48 49 50
000
ASUS45 KABQ 211010
RWRNM
NEW MEXICO REGIONAL WEATHER ROUNDUP
NATIONAL WEATHER SERVICE ALBUQUERQUE NM
400 AM MDT SAT APR 21 2018

NOTE: "FAIR" MEANS FEW OR NO CLOUDS BELOW 12,000 FEET AGL WITH NO
       SIGNIFICANT WEATHER OR OBSTRUCTIONS TO VISION.

      THIS PRODUCT IS RELEASED AS TWO VERSIONS.  ONE VERSION NEAR
      THE TOP OF THE HOUR CONTAINING PRELIMINARY DATA FROM ALBUQUERQUE
      AND OTHER STATIONS.  A FINAL VERSION WITH ADDITIONAL DATA IS
      ISSUED ABOUT 10 MINUTES AFTER THE HOUR.

NMZ501-503-504-510>518-211100-
NORTHWEST PLATEAU/NORTHCENTRAL MOUNTAINS

CITY           SKY/WX    TMP DP  RH WIND       PRES   REMARKS
FARMINGTON     CLOUDY    40  28  62 W10       30.06S WCI  33
LOS ALAMOS     FAIR      36  21  55 SE5       30.04S WCI  32
SANTA FE       FAIR      28  21  75 CALM      30.02S
TAOS           FAIR      28  20  71 S5        30.05F WCI  23
ANGEL FIRE     FAIR      21  18  85 CALM      30.03S

$$
NMZ402-403-502-505>509-211100-
WESTCENTRAL MOUNTAINS/SOUTHWEST MOUNTAINS

CITY           SKY/WX    TMP DP  RH WIND       PRES   REMARKS
GALLUP         MOCLDY    34  32  92 SW7       30.16S WCI  28
GRANTS         FAIR      28  25  88 CALM      30.14R
SILVER CITY    FAIR      38  24  55 CALM      30.12S

$$
NMZ407-409-411-412-211100-
SOUTHERN DESERTS

CITY           SKY/WX    TMP DP  RH WIND       PRES   REMARKS
DEMING         FAIR      49  27  42 W12G23    30.09F
LAS CRUCES     FAIR      44  27  50 N7        30.08S
HOLLOMAN AFB   FAIR      49  27  42 NW9       30.06R
ALAMOGORDO     FAIR      48  27  43 NW9       30.04R
T OR C         FAIR      47  28  47 W14       30.09R

$$
NMZ519>523-211100-
CENTRAL VALLEYS/CENTRAL HIGHLANDS

CITY           SKY/WX    TMP DP  RH WIND       PRES   REMARKS
ALBUQUERQUE    FAIR      41  33  73 SW6       30.08R
DOUBLE EAGLE   FAIR      36  26  67 W10       30.08R WCI  28
MORIARTY ARPT  FAIR      38  28  68 W9        30.03F WCI  31
CLINES CORNERS FAIR      29  24  82 NW5       30.03S WCI  24
BELEN          FAIR      37  28  70 W6        30.09R WCI  32
SOCORRO        FAIR      46  25  43 W18G25    30.06S

$$
NMZ524>526-539-540-211100-
SOUTHCENTRAL MOUNTAINS

CITY           SKY/WX    TMP DP  RH WIND       PRES   REMARKS
RUIDOSO        FAIR      36  27  69 NW7       30.07R WCI  30

$$
NMZ527>531-211100-
NORTHEAST HIGHLANDS/NORTHEAST PLAINS

CITY           SKY/WX    TMP DP  RH WIND       PRES   REMARKS
LAS VEGAS      FOG       30  30 100 E3        30.01R VSB 1/4
RATON          CLOUDY    34  32  92 NE5       29.99F WCI  30
CLAYTON        FOG       38  38 100 E8        30.01S VSB 1/4 WCI  32

$$
NMZ532>537-211100-
EASTCENTRAL PLAINS

CITY           SKY/WX    TMP DP  RH WIND       PRES   REMARKS
SANTA ROSA     PTSUNNY   41  38  86 NW7       30.00R
TUCUMCARI      CLOUDY    46  42  86 NE10      29.96F
CANNON AFB     CLOUDY    45  45 100 N21       29.94S FOG
CLOVIS AIRPORT CLOUDY    46  46 100 N21       29.94S FOG

$$
NMZ028-029-538-211100-
SOUTHEAST PLAINS

CITY           SKY/WX    TMP DP  RH WIND       PRES   REMARKS
ROSWELL        FAIR      52  25  35 NW12      29.96S
ARTESIA        FAIR      50  14  23 NW15      29.97R
CARLSBAD       FAIR      56  14  19 NW21      29.94R
HOBBS          FAIR      41  28  60 NW10      29.90S


$$




USA.gov is the U.S. government's official web portal to all federal, state and local government web resources and services.